Weather History for Langley AFB, VA

Change the Weather History Date:

Friday, May 24, 2013

  Actual Average Record
Temperature  
Mean Temperature 62 °F -  
Max Temperature 70 °F 76 °F 91 °F (1933)
Min Temperature 53 °F 61 °F 45 °F (1931)
Degree Days  
Heating Degree Days 4    
Growing Degree Days 12 (Base 50)    
Moisture  
Dew Point 61 °F    
Average Humidity 93    
Maximum Humidity 100    
Minimum Humidity 52    
Precipitation  
Precipitation 0.22 in - - ()
Sea Level Pressure  
Sea Level Pressure 29.88 in    
Wind  
Wind Speed 11 mph (WNW)    
Max Wind Speed 25 mph    
Max Gust Speed 32 mph    
Visibility 7 miles    
Events Rain    
Averages and records for this station are not official NWS values.
T = Trace of Precipitation, MM = Missing Value Source: NWS Daily Summary

Daily Weather History Graph

Daily Weather History Graph

Search for Another Location

Airport:

Trip Planner

Search our weather history database for the weather conditions in past years. The results will help you decide how hot, cold, wet, or windy it might be!

Date:

Astronomy

May. 24, 2013 Rise Set
Actual Time 5:50 AM EDT 8:14 PM EDT
Civil Twilight 5:20 AM EDT 8:44 PM EDT
Nautical Twilight 4:44 AM EDT 9:20 PM EDT
Astronomical Twilight 4:04 AM EDT 10:01 PM EDT
Moon 7:54 PM EDT (5/24) 5:19 AM EDT (5/24)
Length of Visible Light 15h 23m
Length of Day
14h 23m
Full, 100% of the Moon is Illuminated
May 24
Full
May 25
Full
May 31
Last Quarter
Jun 8
New
Jun 16
First Quarter

Hourly Weather History & Observations

Time (EDT) Temp. Dew Point Humidity Pressure Visibility Wind Dir Wind Speed Gust Speed Precip Events Conditions
12:03 AM 69.8 °F 69.8 °F 100% 29.81 in 10.0 mi SSW 11.5 mph - N/A   Scattered Clouds
12:58 AM 70.2 °F 70.2 °F 100% 29.83 in 10.0 mi SW 11.5 mph - 0.00 in   Overcast
1:33 AM 69.8 °F 69.8 °F 100% 29.80 in 8.0 mi SW 11.5 mph - N/A   Overcast
1:43 AM 69.8 °F 69.8 °F 100% 29.80 in 10.0 mi SW 13.8 mph - N/A   Overcast
1:58 AM 69.4 °F 69.4 °F 100% 29.82 in 10.0 mi WSW 10.4 mph - N/A   Overcast
2:05 AM 69.8 °F 69.8 °F 100% 29.80 in 10.0 mi WSW 8.1 mph - N/A Rain Light Rain
2:19 AM 69.8 °F 69.8 °F 100% 29.79 in 10.0 mi SW 9.2 mph - N/A   Mostly Cloudy
2:22 AM 69.8 °F 69.8 °F 100% 29.79 in 10.0 mi SW 9.2 mph - N/A Rain Light Rain
2:32 AM 69.8 °F 69.8 °F 100% 29.78 in 9.0 mi SW 8.1 mph - N/A Rain Light Rain
2:37 AM 69.8 °F 69.8 °F 100% 29.78 in 10.0 mi SW 9.2 mph - N/A Rain Light Rain
2:45 AM 68.0 °F 68.0 °F 100% 29.78 in 10.0 mi WSW 8.1 mph - N/A   Overcast
2:55 AM 68.0 °F 68.0 °F 100% 29.78 in 9.0 mi WSW 6.9 mph - N/A   Overcast
2:58 AM 68.7 °F 68.7 °F 100% 29.80 in 9.0 mi WSW 6.9 mph - 0.00 in   Overcast
3:06 AM 68.0 °F 68.0 °F 100% 29.78 in 10.0 mi WSW 8.1 mph - N/A Rain Light Rain
3:11 AM 68.0 °F 68.0 °F 100% 29.78 in 6.0 mi WSW 5.8 mph - N/A Rain Light Rain
3:16 AM 68.0 °F 68.0 °F 100% 29.78 in 4.0 mi WSW 5.8 mph - N/A Rain Light Rain
3:21 AM 68.0 °F 68.0 °F 100% 29.77 in 5.0 mi WSW 6.9 mph - N/A Rain Light Rain
3:26 AM 68.0 °F 68.0 °F 100% 29.77 in 8.0 mi WSW 6.9 mph - N/A   Light Drizzle
3:31 AM 68.0 °F 68.0 °F 100% 29.77 in 8.0 mi WSW 6.9 mph - N/A   Mostly Cloudy
3:58 AM 67.8 °F 67.8 °F 100% 29.79 in 8.0 mi WSW 6.9 mph - 0.01 in   Overcast
4:13 AM 68.0 °F 68.0 °F 100% 29.76 in 7.0 mi SW 6.9 mph - N/A   Mostly Cloudy
4:58 AM 67.3 °F 67.3 °F 100% 29.79 in 6.0 mi West 5.8 mph - N/A   Mostly Cloudy
5:23 AM 66.2 °F 66.2 °F 100% 29.77 in 5.0 mi West 6.9 mph - N/A   Clear
5:28 AM 66.2 °F 66.2 °F 100% 29.77 in 5.0 mi West 6.9 mph - N/A   Clear
5:43 AM 66.2 °F 66.2 °F 100% 29.78 in 6.0 mi WSW 6.9 mph - N/A   Partly Cloudy
5:58 AM 66.2 °F 66.2 °F 100% 29.80 in 6.0 mi WSW 6.9 mph - N/A   Scattered Clouds
6:18 AM 66.2 °F 66.2 °F 100% 29.79 in 6.0 mi WSW 3.5 mph - N/A   Mostly Cloudy
6:25 AM 66.2 °F 66.2 °F 100% 29.79 in 7.0 mi West 2.3 mph - N/A   Mostly Cloudy
6:35 AM 66.2 °F 66.2 °F 100% 29.79 in 7.0 mi WNW 2.3 mph - N/A   Overcast
6:45 AM 66.2 °F 66.2 °F 100% 29.80 in 7.0 mi West 3.5 mph - N/A   Overcast
6:58 AM 67.3 °F 67.3 °F 100% 29.82 in 9.0 mi WNW 6.9 mph - N/A   Mostly Cloudy
7:58 AM 66.7 °F 66.7 °F 100% 29.82 in 10.0 mi NW 5.8 mph - N/A   Mostly Cloudy
8:33 AM 68.0 °F 68.0 °F 100% 29.82 in 10.0 mi WNW 9.2 mph - N/A Rain Light Rain
8:43 AM 68.0 °F 68.0 °F 100% 29.82 in 10.0 mi WNW 8.1 mph - N/A   Mostly Cloudy
8:58 AM 67.8 °F 67.6 °F 99% 29.84 in 10.0 mi NW 6.9 mph - 0.00 in   Mostly Cloudy
9:58 AM 70.5 °F 65.5 °F 84% 29.85 in 10.0 mi NW 5.8 mph - N/A   Mostly Cloudy
10:53 AM 69.8 °F 64.4 °F 83% 29.85 in 10.0 mi NNW 12.7 mph - N/A   Overcast
10:55 AM 69.8 °F 64.4 °F 83% 29.85 in 10.0 mi North 13.8 mph - N/A Rain Light Rain
10:58 AM 69.1 °F 65.1 °F 87% 29.87 in 10.0 mi NNW 13.8 mph - 0.00 in Rain Light Rain
11:03 AM 68.0 °F 66.2 °F 94% 29.85 in 5.0 mi NNW 9.2 mph - N/A Rain Light Rain
11:08 AM 68.0 °F 66.2 °F 94% 29.85 in 5.0 mi North 13.8 mph - N/A Rain Light Rain
11:16 AM 68.0 °F 66.2 °F 94% 29.86 in 10.0 mi North 11.5 mph - N/A   Overcast
11:26 AM 68.0 °F 64.4 °F 88% 29.86 in 10.0 mi North 25.3 mph 31.1 mph N/A   Overcast
11:31 AM 66.2 °F 62.6 °F 88% 29.87 in 10.0 mi NNW 18.4 mph 31.1 mph N/A   Overcast
11:36 AM 64.4 °F 60.8 °F 88% 29.88 in 10.0 mi NNW 17.3 mph 28.8 mph N/A   Overcast
11:41 AM 62.6 °F 59.0 °F 88% 29.88 in 10.0 mi NW 17.3 mph 28.8 mph N/A   Overcast
11:45 AM 60.8 °F 59.0 °F 94% 29.89 in 10.0 mi NW 18.4 mph 26.5 mph N/A Rain Light Rain
11:55 AM 59.0 °F 59.0 °F 100% 29.89 in 2.0 mi NNW 23.0 mph 31.1 mph N/A Rain Heavy Rain
11:58 AM 59.4 °F 59.0 °F 99% 29.92 in 2.0 mi NNW 20.7 mph 31.1 mph 0.03 in Rain Heavy Rain
12:08 PM 59.0 °F 57.2 °F 94% 29.90 in 4.0 mi NW 25.3 mph 32.2 mph N/A Rain Light Rain
12:12 PM - - N/A% - - NNW 21.9 mph 32.2 mph N/A   Unknown
12:13 PM 57.2 °F 57.2 °F 100% 29.89 in 6.0 mi NNW 20.7 mph 32.2 mph N/A Rain Light Rain
12:28 PM 55.4 °F 55.4 °F 100% 29.91 in 5.0 mi NW 15.0 mph 24.2 mph N/A Rain Light Rain
12:38 PM 55.4 °F 55.4 °F 100% 29.91 in 5.0 mi NNW 16.1 mph 25.3 mph N/A Rain Light Rain
12:40 PM 55.4 °F 55.4 °F 100% 29.91 in 2.0 mi NNW 16.1 mph 25.3 mph N/A Rain Heavy Rain
12:45 PM 55.4 °F 55.4 °F 100% 29.92 in 1.0 mi NW 16.1 mph 20.7 mph N/A Rain Heavy Rain
12:50 PM 55.4 °F 55.4 °F 100% 29.91 in 0.8 mi NW 12.7 mph 20.7 mph N/A Rain Heavy Rain
12:51 PM 55.4 °F 55.4 °F 100% 29.91 in 0.8 mi NW 13.8 mph 20.7 mph N/A Rain Heavy Rain
12:56 PM 55.4 °F 55.4 °F 100% 29.92 in 0.8 mi NW 13.8 mph - N/A Rain Rain
12:58 PM 55.0 °F 54.7 °F 99% 29.94 in 0.8 mi NW 17.3 mph 23.0 mph 0.15 in Rain Light Rain
1:03 PM 55.4 °F 55.4 °F 100% 29.91 in 1.0 mi NW 12.7 mph 23.0 mph N/A Rain Rain
1:08 PM 55.4 °F 55.4 °F 100% 29.92 in 2.0 mi NW 17.3 mph 25.3 mph N/A Rain Light Rain
1:13 PM 55.4 °F 55.4 °F 100% 29.93 in 2.5 mi NW 18.4 mph 25.3 mph N/A Rain Light Rain
1:23 PM 53.6 °F 53.6 °F 100% 29.94 in 3.0 mi NW 12.7 mph - N/A Rain Light Rain
1:28 PM 53.6 °F 53.6 °F 100% 29.94 in 6.0 mi NW 15.0 mph - N/A Rain Light Rain
1:43 PM 55.4 °F 53.6 °F 94% 29.94 in 4.0 mi NW 16.1 mph 24.2 mph N/A Rain Light Rain
1:53 PM 53.6 °F 53.6 °F 100% 29.94 in 8.0 mi NNW 15.0 mph 24.2 mph N/A Rain Light Rain
1:58 PM 54.5 °F 54.0 °F 98% 29.96 in 8.0 mi NW 16.1 mph 20.7 mph 0.03 in Rain Light Rain
2:03 PM 55.4 °F 53.6 °F 94% 29.95 in 9.0 mi NW 12.7 mph 20.7 mph N/A Rain Light Rain
2:10 PM 55.4 °F 53.6 °F 94% 29.95 in 10.0 mi NW 15.0 mph - N/A   Overcast
2:37 PM 57.2 °F 53.6 °F 88% 29.95 in 10.0 mi NNW 13.8 mph 21.9 mph N/A Rain Light Rain
2:58 PM 57.2 °F 54.7 °F 91% 29.97 in 10.0 mi NNW 13.8 mph 19.6 mph 0.00 in Rain Light Rain
3:00 PM 57.2 °F 55.4 °F 94% 29.95 in 10.0 mi NNW 15.0 mph 19.6 mph N/A   Mostly Cloudy
3:58 PM 60.1 °F 51.3 °F 73% 29.98 in 10.0 mi NW 18.4 mph 26.5 mph 0.00 in   Overcast
4:58 PM 63.1 °F 48.9 °F 60% 29.99 in 10.0 mi NNW 16.1 mph 27.6 mph N/A   Mostly Cloudy
5:58 PM 60.8 °F 46.0 °F 58% 30.02 in 10.0 mi NNW 18.4 mph 27.6 mph N/A   Partly Cloudy
6:58 PM 59.0 °F 44.2 °F 58% 30.05 in 10.0 mi NW 13.8 mph 29.9 mph N/A   Partly Cloudy
7:58 PM 56.5 °F 42.1 °F 59% 30.08 in 10.0 mi NNW 20.7 mph 29.9 mph N/A   Clear
8:58 PM 55.4 °F 40.8 °F 58% 30.10 in 10.0 mi NW 15.0 mph 19.6 mph N/A   Clear
9:58 PM 55.0 °F 40.1 °F 57% 30.13 in 10.0 mi NW 13.8 mph 21.9 mph N/A   Partly Cloudy
10:58 PM 55.2 °F 38.3 °F 53% 30.15 in 10.0 mi NNW 19.6 mph 25.3 mph N/A   Overcast
11:58 PM 54.0 °F 36.7 °F 52% 30.15 in 10.0 mi NW 15.0 mph 24.2 mph N/A   Partly Cloudy